Simultaneous Nadir Overpasses (SNOs) Predictions

Prediction of SNOs between METOP-C and LANDSAT-8 Satellite Orbit:

Table of predicted SNOs for the next 14.0 days since TLE Epoch: 4/17/2021
Index Date (METOP-C) Time (METOP-C) Lat,Lon (METOP-C) SZA (METOP-C ) Date (LANDSAT-8) Time (LANDSAT-8) Lat,Lon (LANDSAT-8) SZA (LANDSAT-8 ) Distance(km) Time Diff (sec)
1 04/18/2021 02:27:27 81.07,-178.37 72.19 04/18/2021 02:28:18 81.08,-178.32 72.22 1.02 51
2 04/18/2021 03:18:05 -81.10, -10.29 107.73 04/18/2021 03:17:44 -81.10, -10.38 107.75 1.48 21
3 04/20/2021 22:01:48 81.08,-111.81 71.26 04/20/2021 22:02:31 81.08,-111.94 71.26 2.31 43
4 04/20/2021 22:52:27 -81.09, 55.91 108.71 04/20/2021 22:51:57 -81.10, 56.03 108.71 2.13 30
5 04/23/2021 17:36:11 81.07, -45.65 70.30 04/23/2021 17:36:45 81.07, -45.60 70.32 0.92 34
6 04/23/2021 18:26:49 -81.10, 122.47 109.61 04/23/2021 18:26:11 -81.09, 122.40 109.64 1.32 38
7 04/26/2021 13:10:32 81.09, 21.24 69.47 04/26/2021 13:10:58 81.09, 21.08 69.46 2.77 26
8 04/26/2021 14:01:11 -81.11,-170.99 110.49 04/26/2021 14:00:24 -81.11,-170.90 110.50 1.63 47
9 04/29/2021 08:44:54 81.08, 87.36 68.56 04/29/2021 08:45:11 81.08, 87.36 68.56 0.20 17



Historial Predications of SNOs between METOP-C and LANDSAT-8
